Flag for Sweden Weather past 2 weeks in Halmstad, Sweden

Now
81 °F

Sunny.


Feels Like: 81 °F
Forecast: 62 / 79 °F
Wind: 8 mph from Southwest

Location: Halmstad Swedish Air Force Base

Current Time: Jul 3, 2015 at 6:13:55 PM

Latest Report: Jul 3, 2015 at 5:50 PM


Visibility: 10 mi

Pressure: 30.27 "Hg

Humidity: 45%

Dew point: 57 °F

Location of HalmstadLocation

Historic Weather in Halmstad — Graph

°F

Halmstad temperature yesterday

Maximum temperature yesterday: 81 °F (at 3:20 PM)
Minimum temperature yesterday: 57 °F (at 2:50 AM)
Average temperature yesterday: 70 °F

Past Weeks' High & Low Weather Summary

 TemperatureHumidityPressure
High82 °F (Jul 3, 2:20 PM)94% (Jun 21, 3:50 AM)30.39 "Hg (Jun 21, 3:50 AM)
Low46 °F (Jun 22, 4:50 AM)32% (Jul 2, 11:50 AM)29.62 "Hg (Jun 23, 1:50 AM)
Average58 °F74%29.98 "Hg
* Reported Jun 18 4:20 PM — Jul 3 4:50 PM, Halmstad, Weather by CustomWeather, © 2015

Note: Actual official high and low records may vary slightly from our data, if they occured in-between our weather recording intervals... More about our weather records

Advertising

Halmstad weather history for previous 24 hours

 ConditionsComfort  
Time TempWeatherWind HumidityBarometerVisibility
4:50 PM
Fri, Jul 3
81 °FSunny.9 mph42%30.27 "Hg10 mi
4:20 PM82 °FPleasantly warm.10 mph37%30.27 "HgN/A
3:50 PM82 °FPleasantly warm.10 mph37%30.27 "HgN/A
3:20 PM82 °FPleasantly warm.10 mph37%30.27 "HgN/A
2:50 PM81 °FPleasantly warm.12 mph37%30.27 "HgN/A
2:20 PM82 °FPleasantly warm.12 mph37%30.30 "HgN/A
1:50 PM81 °FPleasantly warm.13 mph39%30.30 "HgN/A
1:20 PM81 °FPleasantly warm.14 mph39%30.30 "HgN/A
12:50 PM81 °FPleasantly warm.10 mph39%30.30 "HgN/A
12:20 PM79 °FWarm.10 mph42%30.30 "HgN/A
11:50 AM79 °FWarm.10 mph45%30.30 "HgN/A
11:20 AM79 °FWarm.10 mph45%30.30 "HgN/A
10:50 AM77 °FWarm.10 mph47%30.30 "HgN/A
10:20 AM75 °FPassing clouds.9 mph47%30.30 "HgN/A
9:50 AM73 °FPassing clouds.9 mph50%30.30 "HgN/A
9:20 AM72 °FPassing clouds.9 mph53%30.30 "HgN/A
8:50 AM70 °FSunny.12 mph57%30.30 "Hg10 mi
8:20 AM68 °FSunny.9 mph60%30.33 "Hg10 mi
7:50 AM66 °FSunny.10 mph64%30.33 "Hg10 mi
7:20 AM64 °FSunny.10 mph64%30.33 "Hg10 mi
6:50 AM63 °FSunny.10 mph68%30.33 "Hg10 mi
6:20 AM63 °FMild.9 mph68%30.33 "HgN/A
5:50 AM61 °FCool.8 mph68%30.33 "HgN/A
5:20 AM61 °FCool.8 mph68%30.33 "HgN/A
4:50 AM61 °FCool.7 mph68%30.33 "HgN/A
4:20 AM61 °FCool.8 mph63%30.33 "HgN/A
3:50 AM61 °FCool.7 mph63%30.33 "HgN/A
3:20 AM61 °FCool.7 mph63%30.33 "HgN/A
2:50 AM61 °FCool.8 mph63%30.33 "HgN/A
2:20 AM61 °FCool.5 mph63%30.36 "HgN/A
1:50 AM63 °FMild.8 mph59%30.33 "HgN/A
1:20 AM63 °FMild.9 mph56%30.33 "HgN/A
12:50 AM63 °FMild.10 mph56%30.33 "HgN/A
12:20 AM63 °FMild.8 mph56%30.33 "HgN/A
11:50 PM
Thu, Jul 2
64 °FMild.8 mph52%30.33 "HgN/A
11:20 PM64 °FMild.9 mph49%30.36 "HgN/A
10:50 PM66 °FMild.7 mph46%30.36 "HgN/A
10:20 PM68 °FMild.6 mph46%30.36 "HgN/A
9:50 PM68 °FMild.9 mph40%30.36 "HgN/A
9:20 PM70 °FMild.12 mph35%30.33 "HgN/A
8:50 PM72 °FMild.10 mph38%30.33 "HgN/A
8:20 PM73 °FMild.10 mph33%30.33 "HgN/A
7:50 PM75 °FMild.13 mph34%30.33 "HgN/A
7:20 PM75 °FMild.12 mph34%30.33 "HgN/A
6:50 PM77 °FSunny.12 mph32%30.33 "Hg10 mi
6:20 PM77 °FPassing clouds.12 mph34%30.33 "HgN/A
Weather by CustomWeather, © 2015

See weather overviewHow to use our weather pages